When you browse on this site, cookies collect data to enhance your experience and personalize the content and advertising you see.
Visit our Privacy Policy to learn more. By continuing to use the site, you agree to this use of cookies and data.
  • In Lithuania
  • List of Countries
  • For 7 days
  • Water Temperature
  • Satellite Maps
  • Weather Map
  • Weather Widgets
  • user-avatar
    Login

    Hourly Weather Kanye

    Today, 12 December, Wednesday

    Time Temperature Precipitation Wind Pressure Humidity
    00:00 +22°C° 0 mm 3 mps 652 mmHg 39%
    01:00 +21°C° 0 mm 3 mps 652 mmHg 42%
    02:00 +20°C° 0 mm 3 mps 651 mmHg 45%
    03:00 +20°C° 0 mm 3 mps 651 mmHg 50%
    04:00 +19°C° 0 mm 3 mps 651 mmHg 56%
    05:00 +19°C° 0 mm 3 mps 651 mmHg 62%
    06:00 +20°C° 0 mm 4 mps 652 mmHg 57%
    07:00 +21°C° 0 mm 4 mps 652 mmHg 52%
    08:00 +23°C° 0 mm 4 mps 653 mmHg 48%
    09:00 +26°C° 0 mm 4 mps 653 mmHg 41%
    10:00 +28°C° 0 mm 4 mps 654 mmHg 33%
    11:00 +30°C° 0 mm 3 mps 654 mmHg 26%
    12:00 +33°C° 0 mm 3 mps 654 mmHg 23%
    13:00 +34°C° 0 mm 2 mps 654 mmHg 19%
    14:00 +36°C° 0 mm 2 mps 653 mmHg 15%
    15:00 +36°C° 0 mm 2 mps 653 mmHg 14%
    16:00 +36°C° 0 mm 2 mps 652 mmHg 13%
    17:00 +36°C° 0 mm 2 mps 652 mmHg 12%
    18:00 +34°C° 0 mm 2 mps 651 mmHg 14%
    19:00 +31°C° 0 mm 2 mps 651 mmHg 16%
    20:00 +29°C° 0 mm 2 mps 651 mmHg 18%
    21:00 +28°C° 0 mm 2 mps 651 mmHg 19%
    22:00 +28°C° 0 mm 2 mps 651 mmHg 20%
    23:00 +27°C° 0 mm 2 mps 651 mmHg 22%

    Tomorrow, 13 December, Thursday

    Time Temperature Precipitation Wind Pressure Humidity
    00:00 +26°C° 0 mm 2 mps 651 mmHg 23%
    01:00 +25°C° 0 mm 2 mps 651 mmHg 24%
    02:00 +24°C° 0 mm 1 mps 651 mmHg 26%
    03:00 +24°C° 0 mm 1 mps 651 mmHg 27%
    04:00 +23°C° 0 mm 1 mps 651 mmHg 28%
    05:00 +23°C° 0 mm 1 mps 651 mmHg 29%
    06:00 +25°C° 0 mm 2 mps 652 mmHg 25%
    07:00 +28°C° 0 mm 3 mps 653 mmHg 22%
    08:00 +30°C° 0 mm 3 mps 654 mmHg 19%
    09:00 +33°C° 0 mm 3 mps 655 mmHg 17%
    10:00 +35°C° 0 mm 2 mps 655 mmHg 14%
    11:00 +36°C° 0 mm 2 mps 655 mmHg 12%
    12:00 +38°C° 0 mm 2 mps 655 mmHg 11%
    13:00 +39°C° 0 mm 2 mps 655 mmHg 10%
    14:00 +40°C° 0 mm 1 mps 654 mmHg 9%
    15:00 +39°C° 0 mm 1 mps 654 mmHg 10%
    16:00 +37°C° 0 mm 1 mps 653 mmHg 10%
    17:00 +37°C° 0 mm 1 mps 652 mmHg 10%
    18:00 +35°C° 0 mm 1 mps 652 mmHg 12%
    19:00 +33°C° 0 mm 1 mps 652 mmHg 13%
    20:00 +32°C° 0 mm 1 mps 652 mmHg 15%
    21:00 +31°C° 0 mm 1 mps 652 mmHg 15%
    22:00 +30°C° 0 mm 1 mps 652 mmHg 16%
    23:00 +30°C° 0 mm 1 mps 652 mmHg 16%

    Day after tomorrow, 14 December, Friday

    Time Temperature Precipitation Wind Pressure Humidity
    00:00 +29°C° 0 mm 1 mps 652 mmHg 17%
    01:00 +29°C° 0 mm 2 mps 652 mmHg 18%
    02:00 +28°C° 0 mm 2 mps 652 mmHg 19%
    03:00 +27°C° 0 mm 2 mps 652 mmHg 22%
    04:00 +27°C° 0 mm 3 mps 652 mmHg 25%
    05:00 +26°C° 0 mm 3 mps 652 mmHg 28%
    06:00 +27°C° 0 mm 4 mps 653 mmHg 29%
    07:00 +28°C° 0 mm 6 mps 654 mmHg 31%
    08:00 +29°C° 0 mm 7 mps 655 mmHg 32%
    09:00 +32°C° 0 mm 7 mps 655 mmHg 30%
    10:00 +33°C° 0 mm 7 mps 656 mmHg 27%
    11:00 +35°C° 0 mm 6 mps 656 mmHg 24%
    12:00 +36°C° 0 mm 6 mps 656 mmHg 21%
    13:00 +37°C° 0 mm 5 mps 655 mmHg 19%
    14:00 +38°C° 0 mm 4 mps 655 mmHg 16%
    15:00 +38°C° 0 mm 4 mps 654 mmHg 16%
    16:00 +37°C° 0 mm 3 mps 654 mmHg 17%
    17:00 +37°C° 0 mm 3 mps 653 mmHg 17%
    18:00 +35°C° 0 mm 3 mps 653 mmHg 20%
    19:00 +34°C° 0 mm 3 mps 653 mmHg 22%
    20:00 +33°C° 0 mm 3 mps 653 mmHg 25%
    21:00 +30°C° 0 mm 3 mps 653 mmHg 28%
    22:00 +29°C° 0 mm 4 mps 653 mmHg 32%
    23:00 +28°C° 0 mm 4 mps 654 mmHg 36%

    15 December, Saturday

    Time Temperature Precipitation Wind Pressure Humidity
    00:00 +28°C° 0.2 mm 4 mps 653 mmHg 38%
    01:00 +27°C° 0.2 mm 5 mps 653 mmHg 41%
    02:00 +26°C° 0.2 mm 5 mps 653 mmHg 43%
    03:00 +25°C° 0.1 mm 5 mps 653 mmHg 47%
    04:00 +25°C° 0.1 mm 5 mps 653 mmHg 51%
    05:00 +23°C° 0.1 mm 5 mps 653 mmHg 54%
    06:00 +23°C° 0.1 mm 6 mps 654 mmHg 53%
    07:00 +24°C° 0.1 mm 6 mps 654 mmHg 51%
    08:00 +26°C° 0.1 mm 6 mps 655 mmHg 49%
    09:00 +27°C° 0 mm 6 mps 655 mmHg 44%
    10:00 +29°C° 0 mm 6 mps 655 mmHg 39%
    11:00 +30°C° 0 mm 6 mps 656 mmHg 33%
    12:00 +33°C° 0 mm 5 mps 655 mmHg 29%
    13:00 +34°C° 0 mm 4 mps 655 mmHg 25%
    14:00 +36°C° 0 mm 3 mps 654 mmHg 20%
    15:00 +36°C° 0 mm 3 mps 654 mmHg 19%
    16:00 +36°C° 0 mm 2 mps 654 mmHg 18%
    17:00 +35°C° 0 mm 1 mps 653 mmHg 18%
    18:00 +35°C° 0 mm 2 mps 653 mmHg 20%
    19:00 +32°C° 0 mm 2 mps 653 mmHg 22%
    20:00 +30°C° 0 mm 2 mps 652 mmHg 25%
    21:00 +29°C° 0 mm 2 mps 652 mmHg 26%
    22:00 +28°C° 0 mm 2 mps 652 mmHg 28%
    23:00 +28°C° 0 mm 1 mps 652 mmHg 29%

    16 December, Sunday

    Time Temperature Precipitation Wind Pressure Humidity
    00:00 +27°C° 0.1 mm 2 mps 652 mmHg 31%
    01:00 +26°C° 0.1 mm 2 mps 652 mmHg 32%
    02:00 +26°C° 0.1 mm 3 mps 652 mmHg 34%
    03:00 +25°C° 0.1 mm 3 mps 652 mmHg 38%
    04:00 +25°C° 0.1 mm 3 mps 652 mmHg 41%
    05:00 +24°C° 0.1 mm 3 mps 653 mmHg 45%
    06:00 +25°C° 0 mm 4 mps 653 mmHg 42%
    07:00 +27°C° 0 mm 5 mps 654 mmHg 38%
    08:00 +28°C° 0 mm 5 mps 655 mmHg 35%
    09:00 +30°C° 0 mm 5 mps 655 mmHg 31%
    10:00 +33°C° 0 mm 5 mps 655 mmHg 28%
    11:00 +35°C° 0 mm 5 mps 655 mmHg 24%
    12:00 +36°C° 0 mm 4 mps 655 mmHg 22%
    13:00 +37°C° 0 mm 3 mps 654 mmHg 19%
    14:00 +38°C° 0 mm 3 mps 654 mmHg 17%
    15:00 +38°C° 0 mm 2 mps 653 mmHg 17%
    16:00 +37°C° 0 mm 2 mps 653 mmHg 17%
    17:00 +37°C° 0 mm 2 mps 653 mmHg 16%
    18:00 +36°C° 0 mm 2 mps 652 mmHg 19%
    19:00 +34°C° 0 mm 2 mps 652 mmHg 21%
    20:00 +31°C° 0 mm 3 mps 652 mmHg 24%
    21:00 +30°C° 0.1 mm 3 mps 653 mmHg 27%
    22:00 +29°C° 0.1 mm 4 mps 653 mmHg 30%
    23:00 +28°C° 0.1 mm 4 mps 653 mmHg 33%

    17 December, Monday

    Time Temperature Precipitation Wind Pressure Humidity
    00:00 +27°C° 0.3 mm 4 mps 653 mmHg 38%
    01:00 +26°C° 0.3 mm 4 mps 652 mmHg 43%
    02:00 +25°C° 0.3 mm 4 mps 652 mmHg 48%
    03:00 +25°C° 0.3 mm 4 mps 652 mmHg 51%
    04:00 +23°C° 0.3 mm 5 mps 652 mmHg 53%
    05:00 +23°C° 0.3 mm 5 mps 652 mmHg 56%
    06:00 +25°C° 0 mm 5 mps 653 mmHg 50%
    07:00 +27°C° 0 mm 5 mps 654 mmHg 45%
    08:00 +28°C° 0 mm 5 mps 654 mmHg 39%
    09:00 +30°C° 0 mm 5 mps 655 mmHg 34%
    10:00 +33°C° 0 mm 5 mps 655 mmHg 29%
    11:00 +35°C° 0 mm 5 mps 655 mmHg 24%
    12:00 +36°C° 0 mm 4 mps 655 mmHg 22%
    13:00 +37°C° 0 mm 3 mps 654 mmHg 20%
    14:00 +38°C° 0 mm 2 mps 654 mmHg 18%
    15:00 +37°C° 0 mm 2 mps 653 mmHg 18%
    16:00 +37°C° 0 mm 2 mps 653 mmHg 18%
    17:00 +37°C° 0 mm 2 mps 652 mmHg 19%
    18:00 +35°C° 0.1 mm 2 mps 652 mmHg 21%
    19:00 +34°C° 0.1 mm 2 mps 652 mmHg 23%
    20:00 +31°C° 0.1 mm 2 mps 652 mmHg 25%
    21:00 +30°C° 0 mm 2 mps 652 mmHg 27%
    22:00 +29°C° 0 mm 2 mps 652 mmHg 28%
    23:00 +28°C° 0 mm 2 mps 652 mmHg 30%
    Show more